User: anonymous   Login
Location: Albany
(35.0000°S, 118.0000°E)
Time: 23:21:20
(UTC-05:00)
Language:

CZ-4B R/B - Orbit

View from above orbital plane
View from above orbital plane
View from above satellite
View from above satellite

Ground track
Ground track

The orbit data is extracted from the following two-line orbital elements,

1 33410U 08053C   17020.50079922  .00000572  00000-0  46823-4 0  9992
2 33410  97.7094 352.6186 0120282 327.0743  32.3026 14.98093352448670
Epoch (UTC): 20 January 2017 12:01:09
Eccentricity: 0.0120282
inclination: 97.7094°
perigee height: 489 km
apogee height: 656 km
right ascension of ascending node: 352.6186°
argument of perigee: 327.0743°
revolutions per day: 14.98093352
mean anomaly at epoch: 32.3026°
orbit number at epoch: 44867

The dashed part of the orbit path shows where the satellite is in the earth's shadow,  

DLR